Find Iridium Next SV166

NORAD ID: 43570 Int'l Des: 2018-061 Owner: IRIDS Country: US Constellation: Iridium NEXT operational
LEOCIRCULARPOLAR

当前视图

正在加载3D地球...

关于 Iridium Next SV166

正在加载描述...

即将过境

Passes for default location (London). Set your location on the main map for personalized predictions.

高度历史

Loading altitude history...

两行轨道根数

1 43570U 18061B 26149.80637122 .00000024 00000-0 14856-5 0 9991
2 43570 86.3971 64.4321 0002105 83.1078 277.0357 14.34217636410766
Epoch: May 29, 2026 • Age: 17 hours

当前状态

高度 787.4 km
速度 7.47 km/s
星下点 63.35°N, 159.34°E
发射日期 Jul 25, 2018
运行时间 7.8 years
类型 communications

技术详情

分类 Payload
质量 860.00 kg
干质量 700.00 kg
总质量 860.00 kg
长度 3.10 m
直径 1.50 m
跨度 9.40 m
形状 Half Hex Prism+2 pan
制造商 NGISGA
平台类型 EliteBus
阶段状态 In Orbit
所有者/国家 IRIDS/US

Most Searched